• In Uzbekistan
  • List of Countries
  • For 7 days
  • Water Temperature
  • Satellite Maps
  • Weather Map
  • Weather Widgets
  • user-avatar
    Login

    Hourly Weather Fier

    Today, 24 May, Wednesday

    Time Temperature Precipitation Wind Pressure Humidity
    00:00 +16°C° 0 mm 1 mps 761 mmHg 87%
    01:00 +16°C° 0 mm 1 mps 761 mmHg 87%
    02:00 +16°C° 0 mm 1 mps 761 mmHg 87%
    03:00 +16°C° 0 mm 1 mps 761 mmHg 87%
    04:00 +15°C° 0 mm 1 mps 761 mmHg 87%
    05:00 +18°C° 0 mm 1 mps 761 mmHg 80%
    06:00 +20°C° 0 mm 1 mps 761 mmHg 73%
    07:00 +23°C° 0 mm 1 mps 761 mmHg 65%
    08:00 +24°C° 0 mm 1 mps 761 mmHg 60%
    09:00 +25°C° 0 mm 2 mps 761 mmHg 56%
    10:00 +26°C° 0 mm 2 mps 761 mmHg 52%
    11:00 +26°C° 0.2 mm 3 mps 760 mmHg 53%
    12:00 +26°C° 0.2 mm 3 mps 760 mmHg 54%
    13:00 +26°C° 0.2 mm 3 mps 760 mmHg 55%
    14:00 +25°C° 0.2 mm 3 mps 760 mmHg 56%
    15:00 +25°C° 0.2 mm 3 mps 759 mmHg 57%
    16:00 +25°C° 0.2 mm 2 mps 759 mmHg 58%
    17:00 +23°C° 0 mm 2 mps 759 mmHg 67%
    18:00 +21°C° 0 mm 1 mps 759 mmHg 76%
    19:00 +19°C° 0 mm 1 mps 759 mmHg 84%
    20:00 +18°C° 0 mm 1 mps 759 mmHg 85%
    21:00 +16°C° 0 mm 1 mps 760 mmHg 86%
    22:00 +16°C° 0 mm 1 mps 760 mmHg 88%
    23:00 +15°C° 0 mm 1 mps 760 mmHg 88%

    Tomorrow, 25 May, Thursday

    Time Temperature Precipitation Wind Pressure Humidity
    00:00 +15°C° 0 mm 1 mps 760 mmHg 88%
    01:00 +14°C° 0 mm 0 mps 759 mmHg 88%
    02:00 +15°C° 0 mm 1 mps 759 mmHg 88%
    03:00 +15°C° 0 mm 1 mps 759 mmHg 88%
    04:00 +15°C° 0 mm 1 mps 759 mmHg 88%
    05:00 +18°C° 0 mm 1 mps 759 mmHg 81%
    06:00 +20°C° 0 mm 1 mps 759 mmHg 74%
    07:00 +22°C° 0 mm 1 mps 759 mmHg 67%
    08:00 +23°C° 0.1 mm 1 mps 759 mmHg 63%
    09:00 +24°C° 0.1 mm 2 mps 759 mmHg 59%
    10:00 +25°C° 0.1 mm 2 mps 759 mmHg 55%
    11:00 +25°C° 0.5 mm 2 mps 758 mmHg 58%
    12:00 +25°C° 0.5 mm 3 mps 758 mmHg 61%
    13:00 +25°C° 0.5 mm 4 mps 758 mmHg 65%
    14:00 +24°C° 0.6 mm 3 mps 758 mmHg 66%
    15:00 +24°C° 0.6 mm 3 mps 758 mmHg 68%
    16:00 +22°C° 0.6 mm 3 mps 757 mmHg 70%
    17:00 +21°C° 0.6 mm 3 mps 757 mmHg 76%
    18:00 +19°C° 0.6 mm 2 mps 757 mmHg 82%
    19:00 +18°C° 0.6 mm 2 mps 757 mmHg 88%
    20:00 +17°C° 0.4 mm 2 mps 757 mmHg 88%
    21:00 +17°C° 0.4 mm 2 mps 758 mmHg 89%
    22:00 +17°C° 0.4 mm 2 mps 758 mmHg 89%
    23:00 +16°C° 0.3 mm 2 mps 758 mmHg 89%

    Day after tomorrow, 26 May, Friday

    Time Temperature Precipitation Wind Pressure Humidity
    00:00 +16°C° 0.3 mm 3 mps 758 mmHg 90%
    01:00 +16°C° 0.3 mm 3 mps 757 mmHg 90%
    02:00 +16°C° 0.2 mm 3 mps 757 mmHg 90%
    03:00 +14°C° 0.2 mm 3 mps 757 mmHg 90%
    04:00 +14°C° 0.2 mm 3 mps 757 mmHg 90%
    05:00 +16°C° 0.1 mm 3 mps 757 mmHg 86%
    06:00 +17°C° 0.1 mm 3 mps 757 mmHg 81%
    07:00 +19°C° 0.1 mm 3 mps 757 mmHg 77%
    08:00 +20°C° 0.2 mm 3 mps 757 mmHg 71%
    09:00 +21°C° 0.2 mm 3 mps 757 mmHg 65%
    10:00 +22°C° 0.2 mm 4 mps 757 mmHg 59%
    11:00 +23°C° 0.2 mm 4 mps 757 mmHg 57%
    12:00 +23°C° 0.2 mm 5 mps 757 mmHg 55%
    13:00 +23°C° 0.2 mm 5 mps 757 mmHg 53%
    14:00 +23°C° 0.2 mm 5 mps 757 mmHg 55%
    15:00 +23°C° 0.2 mm 5 mps 756 mmHg 57%
    16:00 +22°C° 0.2 mm 6 mps 756 mmHg 59%
    17:00 +20°C° 0.2 mm 5 mps 756 mmHg 67%
    18:00 +19°C° 0.2 mm 4 mps 756 mmHg 74%
    19:00 +17°C° 0.2 mm 4 mps 757 mmHg 82%
    20:00 +16°C° 0.1 mm 3 mps 757 mmHg 83%
    21:00 +16°C° 0.1 mm 3 mps 757 mmHg 84%
    22:00 +15°C° 0.1 mm 2 mps 758 mmHg 85%
    23:00 +15°C° 0 mm 2 mps 758 mmHg 84%

    27 May, Saturday

    Time Temperature Precipitation Wind Pressure Humidity
    00:00 +15°C° 0 mm 2 mps 757 mmHg 83%
    01:00 +15°C° 0 mm 2 mps 757 mmHg 82%
    02:00 +15°C° 0 mm 2 mps 758 mmHg 80%
    03:00 +15°C° 0 mm 2 mps 758 mmHg 79%
    04:00 +14°C° 0 mm 2 mps 758 mmHg 78%
    05:00 +16°C° 0 mm 3 mps 758 mmHg 72%
    06:00 +18°C° 0 mm 3 mps 758 mmHg 67%
    07:00 +20°C° 0 mm 3 mps 758 mmHg 61%
    08:00 +21°C° 0 mm 3 mps 758 mmHg 55%
    09:00 +24°C° 0 mm 3 mps 759 mmHg 48%
    10:00 +26°C° 0 mm 3 mps 759 mmHg 41%
    11:00 +26°C° 0 mm 4 mps 759 mmHg 42%
    12:00 +26°C° 0 mm 5 mps 759 mmHg 42%
    13:00 +27°C° 0 mm 5 mps 759 mmHg 43%
    14:00 +26°C° 0 mm 5 mps 759 mmHg 45%
    15:00 +26°C° 0 mm 5 mps 759 mmHg 48%
    16:00 +26°C° 0 mm 5 mps 759 mmHg 50%
    17:00 +23°C° 0 mm 5 mps 759 mmHg 60%
    18:00 +21°C° 0 mm 4 mps 759 mmHg 70%
    19:00 +19°C° 0 mm 3 mps 760 mmHg 79%
    20:00 +18°C° 0 mm 3 mps 760 mmHg 80%
    21:00 +18°C° 0 mm 3 mps 760 mmHg 82%
    22:00 +17°C° 0 mm 2 mps 761 mmHg 83%
    23:00 +17°C° 0 mm 2 mps 761 mmHg 82%

    28 May, Sunday

    Time Temperature Precipitation Wind Pressure Humidity
    00:00 +17°C° 0 mm 2 mps 761 mmHg 81%
    01:00 +17°C° 0 mm 2 mps 761 mmHg 79%
    02:00 +17°C° 0 mm 2 mps 761 mmHg 79%
    03:00 +17°C° 0 mm 2 mps 761 mmHg 78%
    04:00 +17°C° 0 mm 3 mps 761 mmHg 77%
    05:00 +18°C° 0 mm 2 mps 761 mmHg 72%
    06:00 +20°C° 0 mm 2 mps 762 mmHg 66%
    07:00 +23°C° 0 mm 2 mps 762 mmHg 61%
    08:00 +25°C° 0 mm 2 mps 762 mmHg 53%
    09:00 +26°C° 0 mm 2 mps 762 mmHg 45%
    10:00 +28°C° 0 mm 3 mps 762 mmHg 38%
    11:00 +29°C° 0 mm 3 mps 762 mmHg 36%
    12:00 +30°C° 0 mm 3 mps 762 mmHg 35%
    13:00 +30°C° 0 mm 4 mps 762 mmHg 34%
    14:00 +30°C° 0 mm 4 mps 762 mmHg 37%
    15:00 +29°C° 0 mm 4 mps 762 mmHg 39%
    16:00 +28°C° 0 mm 5 mps 762 mmHg 42%
    17:00 +26°C° 0 mm 4 mps 762 mmHg 52%
    18:00 +23°C° 0 mm 4 mps 762 mmHg 63%
    19:00 +20°C° 0 mm 3 mps 763 mmHg 73%
    20:00 +20°C° 0 mm 3 mps 763 mmHg 73%
    21:00 +19°C° 0 mm 2 mps 764 mmHg 74%
    22:00 +19°C° 0 mm 2 mps 764 mmHg 75%
    23:00 +19°C° 0 mm 2 mps 764 mmHg 74%

    29 May, Monday

    Time Temperature Precipitation Wind Pressure Humidity
    00:00 +19°C° 0 mm 2 mps 764 mmHg 74%
    01:00 +18°C° 0 mm 2 mps 764 mmHg 73%
    02:00 +18°C° 0 mm 2 mps 764 mmHg 74%
    03:00 +18°C° 0 mm 2 mps 764 mmHg 74%
    04:00 +18°C° 0 mm 2 mps 764 mmHg 74%
    05:00 +20°C° 0 mm 2 mps 764 mmHg 69%
    06:00 +23°C° 0 mm 2 mps 765 mmHg 65%
    07:00 +24°C° 0 mm 1 mps 765 mmHg 60%
    08:00 +26°C° 0 mm 1 mps 765 mmHg 55%
    09:00 +28°C° 0 mm 1 mps 765 mmHg 50%
    10:00 +29°C° 0 mm 1 mps 764 mmHg 45%
    11:00 +29°C° 0 mm 2 mps 764 mmHg 45%
    12:00 +29°C° 0 mm 3 mps 764 mmHg 45%
    13:00 +29°C° 0 mm 4 mps 764 mmHg 45%
    14:00 +29°C° 0.1 mm 3 mps 764 mmHg 48%
    15:00 +28°C° 0.1 mm 3 mps 763 mmHg 52%
    16:00 +27°C° 0.1 mm 3 mps 763 mmHg 55%
    17:00 +25°C° 0 mm 2 mps 763 mmHg 63%
    18:00 +23°C° 0 mm 2 mps 763 mmHg 71%
    19:00 +21°C° 0 mm 1 mps 763 mmHg 79%
    20:00 +21°C° 0 mm 1 mps 763 mmHg 81%
    21:00 +20°C° 0 mm 1 mps 763 mmHg 82%
    22:00 +19°C° 0 mm 1 mps 763 mmHg 84%
    23:00 +19°C° 0 mm 1 mps 763 mmHg 85%
    Show more